Location: Bonningues
(50.7927°N, 2.0150°E)
Time: 16:36:51
(UTC+00:00)

Cosmos 2221 Rocket - Pass Details

Date: 08 August 2020
Orbit: 621 x 647 km, 82.5° (Epoch: 19 September)

Event Time Altitude Azimuth Distance (km) Brightness Sun altitude
Rises 22:39:00 0° 348° (NNW) 2,928 8.5 -21.2°
Reaches altitude 10° 22:41:14 10° 348° (NNW) 2,020 7.3 -21.3°
Maximum altitude 22:45:43 80° 262° (W) 650 3.6 -21.6°
Enters shadow 22:46:30 59° 190° (S) 732 3.6 -21.6°
